Tracking 18843 objects as of 20-November-2017
HD Live streaming from Space Station
objects crossing your sky now

GLOBALSTAR M050

Track GLOBALSTAR M050 now!
10-day predictions
GLOBALSTAR M050 is classified as:


NORAD ID: 25908
Int'l Code: 1999-049B
Perigee: 1,649.0 km
Apogee: 1,661.3 km
Inclination: 52.0 °
Period: 119.3 minutes
Semi major axis: 8026 km
RCS: 2.2706 m2 (large)
Launch date: September 22, 1999
Source: Globalstar (GLOB)
Launch site: TYURATAM MISSILE AND SPACE COMPLEX (TTMTR)
aabbcc
Your satellite tracking list
Your tracking list is empty




NASA's NSSDC Master Catalog

Two Line Element Set (TLE):
1 25908U 99049B   17323.81844679 -.00000084  00000-0  45500-4 0  9999
2 25908  51.9962 149.7652 0007675 278.7511 180.3116 12.07375545818756
Source of the keplerian elements: AFSPC